KC0HJX Weather Reports


time (UTC)temp
F
wind
direction
speed
knots
gust
knots
rain 1hr
in
rain 24hr
in
rain mn
in
humidity
%
barometer
mb
20260505231003 52 33 6.1 14.8 0.00 0.00 0.00 73 1010.8
20260505230503 52 70 1.7 14.8 0.00 0.00 0.00 74 1010.1
20260505230002 52 21 6.1 14.8 0.00 0.00 0.00 73 1010.3
20260505225503 52 44 7.0 14.8 0.00 0.00 0.00 73 1010.5
20260505225003 53 356 2.6 13.9 0.00 0.00 0.00 74 1010.4
20260505224503 53 8 7.8 13.9 0.00 0.00 0.00 73 1010.2
20260505224003 53 26 6.1 13.9 0.00 0.00 0.00 74 1010.4
20260505223524 53 289 3.5 14.8 0.00 0.00 0.00 74 1010.0
20260505223002 53 38 6.1 14.8 0.00 0.00 0.00 74 1010.2
20260505222503 53 10 6.1 13.9 0.00 0.00 0.00 74 1010.2
20260505222003 53 28 3.5 13.9 0.00 0.00 0.00 74 1010.1
20260505221502 53 40 5.2 13.0 0.00 0.00 0.00 74 1009.8
20260505221003 53 5 3.5 18.2 0.00 0.00 0.00 74 1009.7
20260505220524 53 60 5.2 18.2 0.00 0.00 0.00 74 1009.7
20260505220002 53 22 6.1 13.0 0.00 0.00 0.00 74 1010.1
20260505215503 54 16 6.1 13.9 0.00 0.00 0.00 74 1010.0
20260505215003 54 54 5.2 13.9 0.00 0.00 0.00 73 1009.4
20260505214503 54 39 4.3 14.8 0.00 0.00 0.00 74 1009.3
20260505214003 54 1 5.2 14.8 0.00 0.00 0.00 73 1009.0
20260505213503 54 22 7.8 15.6 0.00 0.00 0.00 73 1009.2
20260505213003 54 25 8.7 20.0 0.00 0.00 0.00 73 1008.8
20260505212502 54 9 7.8 20.0 0.00 0.00 0.00 73 1009.7
20260505212024 54 5 6.1 14.8 0.00 0.00 0.00 74 1009.1
20260505211524 54 17 6.1 15.6 0.00 0.00 0.00 74 1008.8
20260505211003 54 44 7.0 20.9 0.00 0.00 0.00 75 1008.5
20260505210503 54 18 3.5 20.9 0.00 0.00 0.00 74 1009.2
20260505210003 54 26 8.7 18.2 0.00 0.00 0.00 74 1008.8
20260505205503 54 42 7.8 19.1 0.00 0.00 0.00 75 1009.0
20260505205002 54 20 9.6 19.1 0.00 0.00 0.00 74 1009.6
20260505204502 54 8 5.2 14.8 0.00 0.00 0.00 74 1009.7
20260505204024 54 44 3.5 23.5 0.00 0.00 0.00 74 1010.1
20260505203503 54 356 4.3 23.5 0.00 0.00 0.00 75 1009.8
20260505203003 55 46 7.0 23.5 0.00 0.00 0.00 74 1009.4
20260505202503 55 30 6.1 15.6 0.00 0.00 0.00 74 1008.9
20260505202003 55 26 8.7 16.5 0.00 0.00 0.00 74 1009.0
20260505201524 55 57 5.2 16.5 0.00 0.00 0.00 74 1008.6
20260505201003 55 57 4.3 16.5 0.00 0.00 0.00 76 1008.8
20260505200502 54 14 9.6 16.5 0.00 0.00 0.00 75 1008.6
20260505200003 55 25 7.0 15.6 0.00 0.00 0.00 76 1008.7
20260505195503 54 42 5.2 16.5 0.00 0.00 0.00 77 1008.7
20260505195024 54 28 7.8 16.5 0.00 0.00 0.00 78 1008.6
20260505194503 55 41 7.0 16.5 0.00 0.00 0.00 79 1009.1
20260505194003 54 36 2.6 13.9 0.00 0.00 0.00 79 1008.9
20260505193503 54 45 4.3 14.8 0.00 0.00 0.00 79 1009.1
20260505193003 54 1 6.1 15.6 0.00 0.00 0.00 79 1008.9
20260505192503 55 21 7.0 15.6 0.00 0.00 0.00 79 1009.4
20260505192002 55 16 7.8 14.8 0.00 0.00 0.00 80 1008.6
20260505191503 55 51 3.5 14.8 0.00 0.00 0.00 81 1008.5
20260505191003 55 354 5.2 15.6 0.00 0.00 0.00 80 1008.1
20260505190502 55 4 4.3 16.5 0.00 0.00 0.00 80 1008.6
20260505190003 55 29 6.1 16.5 0.00 0.00 0.00 80 1008.6
20260505185503 56 19 6.1 16.5 0.00 0.00 0.00 79 1008.4
20260505185003 56 15 6.1 16.5 0.00 0.00 0.00 80 1008.4
20260505184503 56 22 4.3 13.0 0.00 0.00 0.00 79 1008.2
20260505184003 56 358 5.2 13.9 0.00 0.00 0.00 79 1008.6
20260505183503 56 52 5.2 13.9 0.00 0.00 0.00 78 1008.1
20260505183003 57 22 5.2 14.8 0.00 0.00 0.00 78 1008.0
20260505182503 57 32 5.2 14.8 0.00 0.00 0.00 78 1008.2
20260505182003 57 22 7.0 13.0 0.00 0.00 0.00 78 1008.1
20260505181503 57 37 4.3 13.0 0.00 0.00 0.00 79 1007.8
20260505181002 57 31 6.1 13.9 0.00 0.00 0.00 78 1007.8
20260505180523 57 54 4.3 13.9 0.00 0.00 0.00 79 1007.8
20260505180003 57 38 7.0 15.6 0.00 0.00 0.00 79 1007.9
20260505175503 57 34 6.1 19.1 0.00 0.00 0.00 80 1008.0
20260505175024 57 18 7.0 19.1 0.00 0.00 0.00 79 1007.5
20260505174503 57 17 5.2 14.8 0.00 0.00 0.00 79 1007.8
20260505174003 57 19 2.6 14.8 0.00 0.00 0.00 81 1007.5
20260505173503 57 17 6.1 19.1 0.00 0.00 0.00 80 1007.5
20260505173003 57 30 6.1 19.1 0.00 0.00 0.00 81 1007.5
20260505172524 57 54 9.6 16.5 0.00 0.00 0.00 81 1007.2
20260505172003 57 4 6.1 15.6 0.00 0.00 0.00 81 1007.4
20260505171503 57 47 5.2 15.6 0.00 0.00 0.00 82 1007.0
20260505171023 57 36 5.2 15.6 0.00 0.00 0.00 82 1007.2
20260505170503 57 31 7.0 18.2 0.00 0.00 0.00 82 1007.1
20260505170002 57 26 7.0 18.2 0.00 0.00 0.00 82 1006.7
20260505165502 57 48 3.5 15.6 0.00 0.00 0.00 82 1007.0
20260505165003 57 29 3.5 14.8 0.00 0.00 0.00 82 1006.6
20260505164524 57 33 7.8 14.8 0.00 0.00 0.00 82 1006.7
20260505164003 58 43 3.5 13.0 0.00 0.00 0.00 83 1006.7
20260505163503 58 60 5.2 11.3 0.00 0.00 0.00 83 1006.7
20260505163003 58 28 2.6 18.2 0.00 0.00 0.00 83 1006.7
20260505162523 58 89 2.6 19.1 0.00 0.00 0.00 82 1006.8
20260505162003 58 44 7.0 19.1 0.00 0.00 0.00 82 1005.9
20260505161503 59 47 2.6 20.0 0.00 0.00 0.00 81 1005.9
20260505161002 60 5 7.0 20.0 0.00 0.00 0.00 80 1005.7
20260505160503 60 10 6.1 20.0 0.00 0.00 0.00 81 1004.8
20260505153003 63 46 4.3 19.1 0.00 0.00 0.00 81 1004.5
20260505152503 63 357 8.7 19.1 0.00 0.00 0.00 80 1004.2
20260505152003 64 12 7.8 18.2 0.00 0.00 0.00 79 1004.1
20260505151503 67 313 3.5 18.2 0.00 0.00 0.00 77 1003.9
20260505151003 68 18 4.3 12.2 0.00 0.00 0.00 84 1003.6
20260505150503 69 37 3.5 11.3 0.00 0.00 0.00 85 1003.6
20260505140503 68 82 3.5 7.8 0.00 0.00 0.00 85 1002.4
20260505125003 67 62 1.7 5.2 0.00 0.00 0.00 85 1002.1
20260505124503 67 33 0.9 6.1 0.00 0.00 0.00 85 1001.8
20260505124003 67 38 2.6 6.1 0.00 0.00 0.00 85 1002.2
20260505123503 67 84 1.7 2.6 0.00 0.00 0.00 85 1001.9
20260505123002 67 48 0.9 2.6 0.00 0.00 0.00 85 1002.0
20260505122503 67 0 0.0 0.9 0.00 0.00 0.00 85 1001.7
20260505122024 67 0 0.0 0.9 0.00 0.00 0.00 84 1001.5
20260505121503 68 162 0.0 0.9 0.00 0.00 0.00 84 1001.6
20260505121003 68 162 0.0 0.9 0.00 0.00 0.00 83 1001.4
20260505120503 68 0 0.0 0.9 0.00 0.00 0.00 83 1001.1
20260505120003 68 0 0.0 0.9 0.00 0.00 0.00 82 1001.5
20260505115502 68 0 0.0 0.9 0.00 0.00 0.00 81 1001.2
20260505115003 69 320 0.0 0.9 0.00 0.00 0.00 80 1001.6
20260505114503 69 194 0.0 0.9 0.00 0.00 0.00 79 1000.9
20260505114003 69 216 0.0 2.6 0.00 0.00 0.00 79 1001.1
20260505113523 70 0 0.0 2.6 0.00 0.00 0.00 78 1000.8
20260505113003 70 8 1.7 2.6 0.00 0.00 0.00 78 1000.9
20260505112503 70 334 1.7 3.5 0.00 0.00 0.00 77 1000.7
20260505112003 71 212 0.0 6.1 0.00 0.00 0.00 76 1000.2
20260505111503 71 241 0.9 6.1 0.00 0.00 0.00 75 1000.3
20260505111003 71 247 1.7 6.1 0.00 0.00 0.00 75 1000.1
20260505110503 71 248 1.7 6.1 0.00 0.00 0.00 75 1000.0
20260505102003 72 210 3.5 8.7 0.00 0.00 0.00 75 999.0
20260505101503 72 256 2.6 7.8 0.00 0.00 0.00 74 999.0
20260505101003 72 303 1.7 9.6 0.00 0.00 0.00 74 999.0
20260505100503 72 262 2.6 9.6 0.00 0.00 0.00 74 999.0
20260505100024 72 268 1.7 7.8 0.00 0.00 0.00 74 999.0
20260505095503 72 251 1.7 7.8 0.00 0.00 0.00 74 999.0
20260505095003 72 291 1.7 7.8 0.00 0.00 0.00 74 999.0
20260505094524 72 267 2.6 9.6 0.00 0.00 0.00 74 998.9
20260505094003 72 260 1.7 9.6 0.00 0.00 0.00 74 999.2
20260505093503 72 238 0.9 7.0 0.00 0.00 0.00 74 999.2
20260505093003 72 238 0.9 7.8 0.00 0.00 0.00 74 999.0
20260505092503 72 239 1.7 8.7 0.00 0.00 0.00 74 999.3
20260505092024 72 247 1.7 8.7 0.00 0.00 0.00 74 999.2
20260505091503 72 199 1.7 7.8 0.00 0.00 0.00 74 999.3
20260505091002 72 309 2.6 7.8 0.00 0.00 0.00 74 999.2
20260505090503 72 249 1.7 7.0 0.00 0.00 0.00 74 999.4
20260505090003 72 287 1.7 6.1 0.00 0.00 0.00 74 999.3
20260505085502 72 213 1.7 7.0 0.00 0.00 0.00 74 999.6
20260505085002 72 288 0.9 7.0 0.00 0.00 0.00 75 999.6
20260505084503 72 229 2.6 7.0 0.00 0.00 0.00 75 999.5
20260505084003 72 273 0.9 6.1 0.00 0.00 0.00 75 999.4
20260505083502 72 238 1.7 7.0 0.00 0.00 0.00 75 999.7
20260505083003 72 63 0.9 7.0 0.00 0.00 0.00 75 999.6
20260505082503 72 171 2.6 7.8 0.00 0.00 0.00 75 999.6
20260505082003 72 250 1.7 7.8 0.00 0.00 0.00 75 1000.1
20260505081503 72 336 0.9 5.2 0.00 0.00 0.00 76 1000.2
20260505081003 72 276 0.9 9.6 0.00 0.00 0.00 76 999.6
20260505080503 72 297 1.7 9.6 0.00 0.00 0.00 76 999.6
20260505080003 72 278 0.9 6.1 0.00 0.00 0.00 75 999.9
20260505075503 72 289 1.7 6.1 0.00 0.00 0.00 75 999.9
20260505075024 72 293 0.9 6.1 0.00 0.00 0.00 75 999.9
20260505074503 72 264 1.7 7.0 0.00 0.00 0.00 75 1000.0
20260505074003 72 313 0.9 11.3 0.00 0.00 0.00 75 1000.0
20260505073503 72 280 1.7 11.3 0.00 0.00 0.00 75 999.7
20260505073003 72 266 1.7 5.2 0.00 0.00 0.00 75 999.8
20260505072503 72 202 1.7 12.2 0.00 0.00 0.00 75 1000.4
20260505072003 72 240 1.7 12.2 0.00 0.00 0.00 75 1000.3
20260505071503 72 166 1.7 7.8 0.00 0.00 0.00 75 1000.2
20260505071003 72 223 0.9 7.8 0.00 0.00 0.00 75 1000.3
20260505070503 72 236 1.7 7.0 0.00 0.00 0.00 74 1000.3
20260505070024 72 227 1.7 7.0 0.00 0.00 0.00 74 1000.6
20260505065503 72 244 1.7 7.0 0.00 0.00 0.00 74 1000.7
20260505065003 72 247 1.7 7.0 0.00 0.00 0.00 74 1000.7
20260505064503 72 268 1.7 8.7 0.00 0.00 0.00 74 1000.7
20260505064003 72 272 2.6 8.7 0.00 0.00 0.00 74 1000.9
20260505063503 72 282 1.7 12.2 0.00 0.00 0.00 74 1000.8
20260505063003 72 169 2.6 13.0 0.00 0.00 0.00 74 1000.6
20260505062502 72 244 1.7 13.0 0.00 0.00 0.00 74 1000.8
20260505062003 72 234 2.6 7.0 0.00 0.00 0.00 74 1001.0
20260505061503 72 157 1.7 6.1 0.00 0.00 0.00 74 1000.9
20260505061003 72 235 1.7 7.8 0.00 0.00 0.00 73 1001.0
20260505060502 72 300 1.7 11.3 0.00 0.00 0.00 73 1000.9
20260505060003 72 209 2.6 11.3 0.00 0.00 0.00 73 1001.2
20260505055503 72 214 1.7 7.8 0.00 0.00 0.00 73 1001.2
20260505055003 72 1 1.7 7.8 0.00 0.00 0.00 73 1001.1
20260505054503 73 114 1.7 11.3 0.00 0.00 0.00 72 1001.4
20260505054003 73 229 1.7 11.3 0.00 0.00 0.00 72 1001.3
20260505053524 73 195 3.5 11.3 0.00 0.00 0.00 72 1001.3
20260505053003 73 249 1.7 9.6 0.00 0.00 0.00 72 1001.2
20260505052503 73 180 1.7 8.7 0.00 0.00 0.00 72 1001.3
20260505052003 73 263 0.9 7.8 0.00 0.00 0.00 72 1001.4
20260505051503 73 156 0.0 7.8 0.00 0.00 0.00 72 1001.2
20260505051003 73 170 2.6 8.7 0.00 0.00 0.00 72 1001.4
20260505050524 73 220 1.7 8.7 0.00 0.00 0.00 72 1001.4
20260505041503 73 180 1.7 14.8 0.00 0.00 0.00 71 1002.0
20260505041003 74 221 0.9 14.8 0.00 0.00 0.00 70 1002.0
20260505040503 74 177 2.6 11.3 0.00 0.00 0.00 70 1001.9
20260505040024 74 152 1.7 11.3 0.00 0.00 0.00 70 1002.2
20260505035502 74 238 2.6 11.3 0.00 0.00 0.00 70 1002.0
20260505035003 74 257 3.5 11.3 0.00 0.00 0.00 70 1002.3
20260505034524 74 157 2.6 13.0 0.00 0.00 0.00 69 1002.0
20260505034003 74 146 2.6 13.0 0.00 0.00 0.00 69 1002.2
20260505033503 74 155 4.3 13.0 0.00 0.00 0.00 69 1001.8
20260505033002 74 151 0.9 7.8 0.00 0.00 0.00 69 1002.1
20260505032502 74 204 1.7 12.2 0.00 0.00 0.00 69 1001.5
20260505032003 75 177 2.6 13.9 0.00 0.00 0.00 68 1001.8
20260505031503 75 175 5.2 13.9 0.00 0.00 0.00 68 1001.9
20260505031003 75 223 3.5 11.3 0.00 0.00 0.00 68 1001.7
20260505030503 75 149 2.6 12.2 0.00 0.00 0.00 68 1001.8
20260505030024 75 48 2.6 12.2 0.00 0.00 0.00 67 1001.6
20260505025502 75 157 3.5 13.9 0.00 0.00 0.00 67 1001.9
20260505025003 75 269 3.5 14.8 0.00 0.00 0.00 67 1001.3
20260505024503 75 181 5.2 14.8 0.00 0.00 0.00 67 1001.3
20260505024003 75 214 1.7 9.6 0.00 0.00 0.00 67 1001.5
20260505023503 76 171 3.5 13.0 0.00 0.00 0.00 66 1001.4
20260505023003 76 239 2.6 15.6 0.00 0.00 0.00 66 1001.6
20260505022503 76 187 2.6 15.6 0.00 0.00 0.00 66 1001.3
20260505022003 76 168 3.5 15.6 0.00 0.00 0.00 66 1001.3
20260505021524 76 355 3.5 20.0 0.00 0.00 0.00 65 1001.4
20260505021003 76 126 3.5 20.0 0.00 0.00 0.00 65 1001.1
20260505020503 76 200 4.3 20.0 0.00 0.00 0.00 65 1001.7
20260505020003 76 209 4.3 13.9 0.00 0.00 0.00 65 1001.5
20260505015503 76 186 3.5 13.9 0.00 0.00 0.00 65 1001.5
20260505015003 76 141 3.5 13.9 0.00 0.00 0.00 65 1001.2
20260505014503 77 234 2.6 13.9 0.00 0.00 0.00 64 1001.5
20260505014003 77 147 2.6 13.9 0.00 0.00 0.00 64 1001.2
20260505013503 77 189 3.5 13.9 0.00 0.00 0.00 64 1001.1
20260505013003 77 182 3.5 11.3 0.00 0.00 0.00 63 1001.5
20260505012503 77 181 3.5 11.3 0.00 0.00 0.00 63 1001.3
20260505012003 77 162 2.6 13.0 0.00 0.00 0.00 63 1001.6
20260505011503 77 176 3.5 13.0 0.00 0.00 0.00 63 1001.6
20260505011003 77 148 3.5 13.0 0.00 0.00 0.00 62 1001.8
20260505010503 78 198 3.5 11.3 0.00 0.00 0.00 62 1002.1
20260505010003 78 166 2.6 7.8 0.00 0.00 0.00 62 1001.4
20260505005503 78 159 1.7 13.9 0.00 0.00 0.00 62 1001.6
20260505005004 78 210 3.5 13.9 0.00 0.00 0.00 61 1001.8
20260505004502 78 333 0.9 9.6 0.00 0.00 0.00 61 1001.8
20260505004003 79 170 5.2 16.5 0.00 0.00 0.00 60 1002.0
20260505003524 79 125 0.9 16.5 0.00 0.00 0.00 60 1002.0
20260505003003 79 233 2.6 13.9 0.00 0.00 0.00 60 1002.1
20260505002503 79 165 4.3 13.0 0.00 0.00 0.00 59 1001.6
20260505002003 79 182 1.7 12.2 0.00 0.00 0.00 59 1001.9
20260505001502 79 250 3.5 12.2 0.00 0.00 0.00 58 1002.2
20260505001003 80 214 4.3 20.0 0.00 0.00 0.00 58 1002.1
20260505000503 80 201 3.5 20.0 0.00 0.00 0.00 58 1002.1
20260505000024 80 143 1.7 14.8 0.00 0.00 0.00 57 1001.9
20260504235503 80 167 4.3 14.8 0.00 0.00 0.00 57 1001.8
20260504235003 80 185 2.6 9.6 0.00 0.00 0.00 57 1002.3
20260504234503 80 167 3.5 14.8 0.00 0.00 0.00 57 1002.1
20260504234003 80 164 3.5 15.6 0.00 0.00 0.00 57 1002.2
20260504233503 80 157 4.3 15.6 0.00 0.00 0.00 57 1002.0
20260504233003 80 195 4.3 15.6 0.00 0.00 0.00 58 1002.6
20260504232502 80 16 1.7 12.2 0.00 0.00 0.00 58 1002.4
20260504232003 80 201 2.6 11.3 0.00 0.00 0.00 58 1002.4
20260504231503 80 181 4.3 11.3 0.00 0.00 0.00 58 1003.1